Weather History for Eureka, NV

Change the Weather History Date:

Thursday, December 20, 2012

  Actual Average Record
Temperature  
Mean Temperature 17 °F 24 °F  
Max Temperature 34 °F 37 °F 62 °F (1981)
Min Temperature -1 °F 10 °F -20 °F (1990)
Degree Days  
Heating Degree Days 48 41  
Month to date heating degree days 674 787  
Since 1 July heating degree days 1970 2546  
Cooling Degree Days 0 0  
Month to date cooling degree days 0 0  
Year to date cooling degree days 529 288  
Moisture  
Dew Point 3 °F    
Average Humidity 60    
Maximum Humidity 83    
Minimum Humidity 36    
Precipitation  
Precipitation 0.00 in 0.02 in 0.28 in (2010)
Month to date precipitation 0.52 0.38  
Year to date precipitation 6.44 8.77  
Sea Level Pressure  
Sea Level Pressure 30.31 in    
Wind  
Wind Speed 7 mph (South)    
Max Wind Speed 18 mph    
Max Gust Speed 23 mph    
T = Trace of Precipitation, MM = Missing Value Source: NWS Daily Summary

Daily Weather History Graph

Daily Weather History Graph

Search for Another Location

Airport:

Trip Planner

Search our weather history database for the weather conditions in past years. The results will help you decide how hot, cold, wet, or windy it might be!

Date:

Astronomy

Dec. 20, 2012 Rise Set
Actual Time 7:00 AM PST 4:23 PM PST
Civil Twilight 6:30 AM PST 4:53 PM PST
Nautical Twilight 5:56 AM PST 5:27 PM PST
Astronomical Twilight 5:23 AM PST 6:00 PM PST
Moon 11:42 AM PST (12/20) No Moon Set
Length of Visible Light 10h 22m
Length of Day
9h 22m
First Quarter, 56% of the Moon is Illuminated
Dec 20
First Quarter
Dec 28
Full
Jan 4
Last Quarter
Jan 11
New
Jan 18
First Quarter

Hourly Weather History & Observations

Time (PST) Temp. Windchill Dew Point Humidity Pressure Visibility Wind Dir Wind Speed Gust Speed Precip Events Conditions
12:53 AM 5.0 °F -6.9 °F -0.0 °F 80% 30.39 in - West 6.9 mph - N/A   Unknown
1:53 AM 5.0 °F -9.1 °F -0.9 °F 76% 30.39 in - SW 9.2 mph - N/A   Unknown
2:53 AM 3.9 °F -6.9 °F -2.0 °F 76% 30.38 in - South 5.8 mph - N/A   Unknown
3:53 AM 3.9 °F -6.9 °F -2.0 °F 76% 30.38 in - SW 5.8 mph - N/A   Unknown
4:53 AM 3.0 °F - -2.9 °F 76% 30.42 in - Calm Calm - N/A   Unknown
5:53 AM -0.0 °F -11.6 °F -5.1 °F 79% 30.45 in - SW 5.8 mph - N/A   Unknown
6:53 AM 3.0 °F -9.3 °F -2.9 °F 76% 30.42 in - SSW 6.9 mph - N/A   Unknown
7:53 AM 5.0 °F -5.6 °F -2.0 °F 73% 30.43 in - WSW 5.8 mph - N/A   Unknown
8:53 AM 14.0 °F 2.9 °F 3.9 °F 64% 30.40 in - SW 8.1 mph - N/A   Unknown
9:53 AM 18.0 °F 6.1 °F 7.0 °F 62% 30.36 in - SW 10.4 mph - N/A   Unknown
10:53 AM 24.1 °F 17.0 °F 9.0 °F 53% 30.32 in - SW 5.8 mph - N/A   Unknown
11:53 AM 27.0 °F - 10.0 °F 49% 30.28 in - Calm Calm - N/A   Unknown
12:53 PM 30.9 °F - 7.0 °F 37% 30.24 in - Calm Calm - N/A   Unknown
1:53 PM 30.0 °F 19.1 °F 7.0 °F 38% 30.22 in - SE 15.0 mph 23.0 mph N/A   Unknown
2:53 PM 32.0 °F 24.2 °F 8.1 °F 37% 30.21 in - SE 9.2 mph - N/A   Unknown
3:53 PM 27.0 °F 16.7 °F 6.1 °F 41% 30.23 in - SE 11.5 mph - N/A   Unknown
4:53 PM 26.1 °F 13.1 °F 5.0 °F 41% 30.24 in - SE 17.3 mph - N/A   Unknown
5:53 PM 27.0 °F 17.3 °F 3.9 °F 37% 30.26 in - SE 10.4 mph - N/A   Unknown
6:53 PM 19.0 °F - 3.9 °F 52% 30.30 in - Calm Calm - N/A   Unknown
7:53 PM 15.1 °F 9.4 °F 3.0 °F 59% 30.30 in - SSE 3.5 mph - N/A   Unknown
8:53 PM 21.0 °F 16.2 °F 3.0 °F 46% 30.23 in - Variable 3.5 mph - N/A   Unknown
9:53 PM 21.0 °F 14.6 °F 5.0 °F 50% 30.21 in - South 4.6 mph - N/A   Unknown
10:53 PM 17.1 °F 11.7 °F 1.9 °F 52% 30.21 in - ENE 3.5 mph - N/A   Unknown
11:53 PM 25.0 °F 14.8 °F 5.0 °F 43% 30.14 in - SE 10.4 mph - N/A   Unknown